Location: Im Fang
(46.6019°N, 7.2397°E)
Time: 06:41:03
(UTC+00:00)

Cosmos 1674 Rocket - Pass Details

Date: 08 December 2019
Orbit: 602 x 631 km, 82.5° (Epoch: 25 January)

Event Time Altitude Azimuth Distance (km) Brightness Sun altitude
Rises 05:57:09 0° 353° (N) 2,892 6.7 -10.7°
Reaches altitude 10° 05:59:25 10° 356° (N) 1,978 5.9 -10.3°
Maximum altitude 06:03:46 65° 79° (E) 672 4.0 -9.6°
Drops below altitude 10° 06:08:02 10° 162° (SSE) 1,948 6.8 -9.0°
Sets 06:10:15 0° 165° (SSE) 2,844 7.6 -8.6°
